CT2IRK-11 Weather Reports


Display with metric or nautical units.
time (UTC)temp
F
wind
direction
speed
MPH
gust
MPH
rain 1hr
in
rain 24hr
in
rain mn
in
humidity
%
barometer
mb
20260903033006 63 178 0.0 0.0 0.00 0.00 0.00 98 1011.7
20260903031005 64 270 0.0 0.0 0.00 0.00 0.00 98 1011.7
20260903030006 64 301 0.0 0.0 0.00 0.00 0.00 97 1011.8
20260903025005 64 225 0.0 0.0 0.00 0.00 0.00 95 1011.8
20260903024005 65 225 0.0 0.0 0.00 0.00 0.00 94 1011.8
20260903023005 65 233 0.0 0.0 0.00 0.00 0.00 93 1011.8
20260903021005 65 219 0.0 0.0 0.00 0.00 0.00 92 1011.8
20260903020006 66 211 0.0 0.0 0.00 0.00 0.00 91 1011.8
20260903015005 66 270 0.0 0.0 0.00 0.00 0.00 88 1011.8
20260903014006 67 248 0.0 0.0 0.00 0.00 0.00 86 1011.8
20260903013006 67 225 0.0 0.0 0.00 0.00 0.00 85 1012.0
20260903012005 68 225 0.0 0.0 0.00 0.00 0.00 83 1012.1
20260903011005 68 225 0.0 0.0 0.00 0.00 0.00 81 1012.1
20260903005006 70 193 0.0 0.0 0.00 0.00 0.00 79 1012.3
20260903004005 71 270 0.0 0.0 0.00 0.00 0.00 74 1012.3
20260903003005 74 12 0.0 0.0 0.00 0.00 0.00 65 1012.2
20260903002006 76 35 0.0 8.0 0.00 0.00 0.00 54 1012.3
20260903001006 76 54 6.0 10.0 0.00 0.00 0.00 53 1012.2
20260903000005 76 68 8.0 9.0 0.00 0.00 0.00 55 1012.3
20260902235006 76 54 8.0 9.0 0.00 0.00 0.00 57 1012.1
20260902234005 76 78 8.0 10.0 0.00 0.00 0.00 58 1012.1
20260902233006 75 68 9.0 10.0 0.00 0.00 0.00 60 1012.0
20260902232006 75 45 8.0 10.0 0.00 0.00 0.00 62 1012.0
20260902231006 75 45 9.0 12.0 0.00 0.00 0.00 63 1012.2
20260902230007 75 45 7.0 12.0 0.00 0.00 0.00 66 1012.3
20260902225006 75 65 8.0 12.0 0.00 0.00 0.00 67 1012.3
20260902224005 75 48 9.0 12.0 0.00 0.00 0.00 67 1012.3
20260902223006 75 53 10.0 12.0 0.00 0.00 0.00 68 1012.2
20260902222005 75 56 9.0 13.0 0.00 0.00 0.00 68 1012.2
20260902221006 75 64 9.0 12.0 0.00 0.00 0.00 68 1012.3
20260902215006 76 45 6.0 13.0 0.00 0.00 0.00 67 1012.3
20260902214005 76 56 8.0 13.0 0.00 0.00 0.00 67 1012.3
20260902213005 76 72 8.0 10.0 0.00 0.00 0.00 66 1012.1
20260902212006 76 59 6.0 13.0 0.00 0.00 0.00 65 1012.3
20260902211005 77 64 10.0 12.0 0.00 0.00 0.00 64 1012.2
20260902205005 78 50 8.0 10.0 0.00 0.00 0.00 60 1012.2
20260902204006 78 85 9.0 10.0 0.00 0.00 0.00 59 1012.2
20260902203005 79 51 7.0 10.0 0.00 0.00 0.00 59 1012.1
20260902202006 79 67 7.0 9.0 0.00 0.00 0.00 58 1012.0
20260902201010 80 47 7.0 10.0 0.00 0.00 0.00 58 1011.7
20260902194005 81 49 2.0 10.0 0.00 0.00 0.00 57 1011.7
20260902193007 81 45 0.0 6.0 0.00 0.00 0.00 57 1011.4
20260902192005 82 32 0.0 1.0 0.00 0.00 0.00 55 1011.3
20260902191005 83 57 0.0 7.0 0.00 0.00 0.00 55 1011.3
20260902190006 84 31 6.0 8.0 0.00 0.00 0.00 54 1011.3
20260902185005 85 31 4.0 9.0 0.00 0.00 0.00 53 1011.4
20260902184005 86 330 6.0 9.0 0.00 0.00 0.00 51 1011.4
20260902182005 88 0 0.0 7.0 0.00 0.00 0.00 49 1011.1
20260902181005 89 36 6.0 8.0 0.00 0.00 0.00 48 1011.2
20260902180007 91 42 5.0 8.0 0.00 0.00 0.00 44 1011.0
20260902175005 98 292 0.0 3.0 0.00 0.00 0.00 19 1010.9
20260902174005 99 259 1.0 3.0 0.00 0.00 0.00 19 1010.9
20260902173005 99 279 0.0 3.0 0.00 0.00 0.00 18 1010.8
20260902172006 98 270 0.0 5.0 0.00 0.00 0.00 17 1010.9
20260902171011 98 270 0.0 0.0 0.00 0.00 0.00 16 1011.1
20260902170005 96 16 2.0 5.0 0.00 0.00 0.00 18 1011.3
20260902165025 97 311 0.0 5.0 0.00 0.00 0.00 20 1011.2
20260902163005 97 279 3.0 6.0 0.00 0.00 0.00 22 1011.1
20260902162005 97 248 5.0 6.0 0.00 0.00 0.00 23 1011.2
20260902161005 98 324 4.0 6.0 0.00 0.00 0.00 23 1011.5
20260902155005 97 248 6.0 6.0 0.00 0.00 0.00 24 1011.6
20260902154005 98 270 2.0 7.0 0.00 0.00 0.00 24 1011.6
20260902153005 99 283 0.0 5.0 0.00 0.00 0.00 24 1011.6
20260902152005 99 270 0.0 5.0 0.00 0.00 0.00 23 1011.7
20260902151005 98 276 0.0 6.0 0.00 0.00 0.00 26 1011.8
20260902150005 96 344 3.0 8.0 0.00 0.00 0.00 27 1012.0
20260902145004 96 274 4.0 8.0 0.00 0.00 0.00 25 1012.0
20260902143005 95 311 0.0 6.0 0.00 0.00 0.00 28 1012.0
20260902141005 94 59 4.0 7.0 0.00 0.00 0.00 31 1012.2
20260902140005 95 279 5.0 7.0 0.00 0.00 0.00 28 1012.2
20260902135005 96 270 3.0 6.0 0.00 0.00 0.00 29 1012.2
20260902133005 94 282 4.0 6.0 0.00 0.00 0.00 29 1012.4
20260902132005 94 270 3.0 6.0 0.00 0.00 0.00 31 1012.4
20260902131005 94 303 0.0 6.0 0.00 0.00 0.00 34 1012.6
20260902130005 92 336 4.0 6.0 0.00 0.00 0.00 36 1012.6
20260902125005 92 352 2.0 7.0 0.00 0.00 0.00 39 1012.7
20260902124005 91 270 1.0 7.0 0.00 0.00 0.00 42 1012.7
20260902123004 90 249 3.0 7.0 0.00 0.00 0.00 42 1013.1
20260902122005 91 289 5.0 6.0 0.00 0.00 0.00 41 1013.1
20260902121005 90 13 1.0 7.0 0.00 0.00 0.00 44 1013.2
20260902120004 89 53 2.0 5.0 0.00 0.00 0.00 46 1013.3
20260902115004 89 274 5.0 6.0 0.00 0.00 0.00 45 1013.5
20260902114005 87 38 4.0 7.0 0.00 0.00 0.00 48 1013.5
20260902113004 86 351 5.0 7.0 0.00 0.00 0.00 49 1013.6
20260902111005 85 15 4.0 6.0 0.00 0.00 0.00 51 1013.7
20260902110008 83 322 4.0 7.0 0.00 0.00 0.00 55 1013.8
20260902105004 82 11 5.0 7.0 0.00 0.00 0.00 56 1013.9
20260902104005 81 44 5.0 8.0 0.00 0.00 0.00 57 1013.9
20260902102005 79 25 5.0 7.0 0.00 0.00 0.00 60 1014.0
20260902100004 77 52 5.0 9.0 0.00 0.00 0.00 66 1014.0
20260902095005 76 29 6.0 9.0 0.00 0.00 0.00 68 1013.9
20260902094004 76 81 5.0 8.0 0.00 0.00 0.00 68 1013.9
20260902092005 75 60 7.0 10.0 0.00 0.00 0.00 72 1013.8
20260902091004 74 64 7.0 10.0 0.00 0.00 0.00 74 1013.6
20260902090005 74 51 7.0 9.0 0.00 0.00 0.00 74 1013.6
20260902085005 72 50 8.0 9.0 0.00 0.00 0.00 77 1013.7
20260902084004 73 76 7.0 9.0 0.00 0.00 0.00 75 1013.7
20260902083004 73 72 6.0 8.0 0.00 0.00 0.00 75 1013.7
20260902082005 72 356 0.0 0.0 0.00 0.00 0.00 77 1013.5
20260902081004 72 348 0.0 0.0 0.00 0.00 0.00 76 1013.5
20260902080004 72 37 0.0 0.0 0.00 0.00 0.00 76 1013.6
20260902075004 70 208 0.0 0.0 0.00 0.00 0.00 76 1013.4
20260902073004 66 270 0.0 0.0 0.00 0.00 0.00 88 1013.3
20260902071005 63 219 0.0 0.0 0.00 0.00 0.00 97 1013.1
20260902070007 61 225 0.0 0.0 0.00 0.00 0.00 99 1012.9
20260902065005 60 224 0.0 0.0 0.00 0.00 0.00 99 1012.7
20260902064006 58 215 0.0 0.0 0.00 0.00 0.00 99 1012.7
20260902063006 58 238 0.0 0.0 0.00 0.00 0.00 99 1012.4
20260902062005 58 225 0.0 0.0 0.00 0.00 0.00 99 1012.5
20260902061007 58 202 0.0 0.0 0.00 0.00 0.00 99 1012.3
20260902060006 58 202 0.0 0.0 0.00 0.00 0.00 99 1012.2
20260902055006 58 180 0.0 0.0 0.00 0.00 0.00 99 1012.1
20260902054005 58 225 0.0 0.0 0.00 0.00 0.00 99 1012.1
20260902052006 59 270 0.0 0.0 0.00 0.00 0.00 99 1012.1
20260902051006 59 225 0.0 0.0 0.00 0.00 0.00 99 1012.1
20260902050008 59 248 0.0 0.0 0.00 0.00 0.00 99 1012.1
20260902045005 59 161 0.0 0.0 0.00 0.00 0.00 99 1012.0
20260902044006 59 248 0.0 0.0 0.00 0.00 0.00 99 1012.0
20260902043005 59 202 0.0 0.0 0.00 0.00 0.00 99 1012.0
20260902042006 60 248 0.0 0.0 0.00 0.00 0.00 99 1012.2
20260902041005 60 225 0.0 0.0 0.00 0.00 0.00 99 1012.1
20260902040006 61 279 0.0 0.0 0.00 0.00 0.00 99 1012.3
20260902035005 61 180 0.0 0.0 0.00 0.00 0.00 99 1012.4
20260902034005 62 246 0.0 0.0 0.00 0.00 0.00 99 1012.4